QPF
0.11 0.10 0.15 0.15 0.14 0.11 0.09 0.08 0.08 0.08 0.08 0.07 0.06 0.06 0.07 0.08 0.11 0.10 0.07 0.06 0.09 0.10 0.10 0.11 0.12 0.12 0.12 0.13 0.13 0.10 0.07 0.07 0.07 0.06 0.05 0.05 0.04 0.03 0.03 0.04 0.06 0.05 0.07
0.11 0.08 0.12 0.12 0.12 0.10 0.10 0.10 0.07 0.08 0.07 0.06 0.06 0.06 0.08 0.11 0.13 0.09 0.07 0.07 0.11 0.12 0.11 0.11 0.11 0.12 0.11 0.10 0.09 0.08 0.07 0.08 0.08 0.08 0.06 0.04 0.03 0.04 0.04 0.04 0.03 0.04 0.06
0.07 0.06 0.07 0.08 0.08 0.10 0.11 0.08 0.06 0.08 0.07 0.07 0.07 0.07 0.10 0.12 0.11 0.09 0.08 0.08 0.12 0.12 0.12 0.11 0.13 0.13 0.14 0.14 0.10 0.08 0.09 0.10 0.12 0.10 0.06 0.03 0.02 0.03 0.03 0.03 0.02 0.03 0.05
0.07 0.06 0.06 0.06 0.06 0.07 0.05 0.04 0.08 0.10 0.10 0.09 0.09 0.10 0.11 0.11 0.10 0.10 0.10 0.10 0.12 0.12 0.12 0.12 0.13 0.14 0.14 0.13 0.12 0.10 0.10 0.12 0.17 0.15 0.06 0.02 0.02 0.04 0.04 0.04 0.04 0.04 0.04
0.09 0.09 0.08 0.06 0.05 0.04 0.04 0.06 0.09 0.10 0.12 0.11 0.10 0.10 0.10 0.10 0.11 0.11 0.10 0.11 0.14 0.14 0.14 0.13 0.11 0.12 0.12 0.12 0.11 0.10 0.11 0.17 0.20 0.15 0.08 0.04 0.02 0.04 0.05 0.05 0.06 0.05 0.03
0.09 0.07 0.05 0.05 0.05 0.04 0.05 0.06 0.07 0.09 0.11 0.10 0.08 0.08 0.09 0.08 0.10 0.14 0.13 0.15 0.18 0.19 0.14 0.12 0.11 0.10 0.09 0.11 0.11 0.12 0.14 0.17 0.19 0.15 0.11 0.08 0.05 0.06 0.07 0.07 0.06 0.05 0.03
0.06 0.05 0.04 0.07 0.06 0.06 0.07 0.07 0.06 0.07 0.08 0.07 0.06 0.07 0.06 0.06 0.09 0.14 0.19 0.23 0.24 0.20 0.14 0.13 0.11 0.09 0.08 0.08 0.08 0.11 0.12 0.12 0.13 0.14 0.10 0.07 0.05 0.07 0.08 0.07 0.05 0.05 0.04
0.04 0.06 0.06 0.07 0.05 0.05 0.07 0.08 0.07 0.06 0.07 0.07 0.06 0.08 0.06 0.07 0.10 0.14 0.20 0.23 0.20 0.16 0.14 0.13 0.09 0.06 0.05 0.06 0.06 0.08 0.09 0.09 0.11 0.13 0.10 0.05 0.05 0.07 0.07 0.06 0.05 0.04 0.05
0.05 0.07 0.06 0.05 0.04 0.04 0.06 0.07 0.07 0.09 0.08 0.06 0.06 0.09 0.08 0.09 0.12 0.14 0.19 0.21 0.18 0.14 0.11 0.10 0.07 0.05 0.04 0.05 0.08 0.08 0.10 0.10 0.09 0.10 0.08 0.04 0.04 0.05 0.05 0.05 0.04 0.03 0.03
0.05 0.04 0.04 0.04 0.04 0.04 0.05 0.07 0.06 0.08 0.08 0.06 0.06 0.09 0.09 0.10 0.12 0.14 0.18 0.20 0.20 0.16 0.11 0.09 0.06 0.05 0.04 0.07 0.09 0.10 0.11 0.09 0.08 0.08 0.07 0.05 0.05 0.06 0.05 0.04 0.04 0.03 0.03
0.03 0.03 0.03 0.03 0.04 0.04 0.05 0.07 0.08 0.10 0.10 0.08 0.07 0.11 0.09 0.08 0.10 0.12 0.18 0.19 0.21 0.16 0.13 0.10 0.08 0.07 0.06 0.09 0.10 0.11 0.11 0.08 0.07 0.08 0.08 0.06 0.07 0.07 0.07 0.06 0.05 0.05 0.04
0.03 0.04 0.03 0.02 0.02 0.03 0.04 0.06 0.07 0.11 0.14 0.10 0.08 0.09 0.09 0.07 0.06 0.09 0.19 0.24 0.22 0.17 0.14 0.13 0.12 0.11 0.08 0.07 0.09 0.09 0.06 0.07 0.06 0.07 0.08 0.09 0.09 0.10 0.09 0.07 0.06 0.06 0.06
0.04 0.06 0.04 0.02 0.02 0.02 0.03 0.06 0.10 0.14 0.14 0.12 0.09 0.08 0.09 0.08 0.08 0.12 0.19 0.22 0.20 0.17 0.13 0.12 0.12 0.09 0.07 0.07 0.06 0.06 0.06 0.04 0.05 0.07 0.09 0.12 0.12 0.12 0.12 0.08 0.06 0.05 0.05
0.03 0.03 0.02 0.02 0.01 0.01 0.03 0.06 0.09 0.12 0.12 0.09 0.08 0.09 0.11 0.11 0.13 0.15 0.13 0.13 0.14 0.13 0.12 0.10 0.10 0.07 0.06 0.06 0.06 0.05 0.04 0.05 0.07 0.07 0.09 0.13 0.14 0.15 0.14 0.10 0.07 0.05 0.05
0.02 0.01 0.01 0.01 0.01 0.01 0.02 0.04 0.07 0.08 0.07 0.07 0.09 0.11 0.11 0.11 0.12 0.11 0.09 0.09 0.09 0.10 0.10 0.10 0.08 0.06 0.06 0.07 0.05 0.04 0.03 0.05 0.07 0.10 0.12 0.14 0.15 0.17 0.15 0.11 0.08 0.07 0.07
0.01 0.01 0.01 0.01 0.01 0.01 0.02 0.03 0.04 0.04 0.05 0.05 0.06 0.07 0.07 0.07 0.08 0.08 0.07 0.08 0.09 0.08 0.09 0.10 0.07 0.06 0.06 0.05 0.06 0.05 0.04 0.05 0.09 0.13 0.15 0.15 0.15 0.16 0.14 0.11 0.08 0.07 0.08
0.01 0.01 0.01 0.01 0.01 0.01 0.01 0.02 0.03 0.04 0.04 0.04 0.03 0.02 0.04 0.05 0.05 0.06 0.06 0.07 0.10 0.09 0.08 0.09 0.06 0.04 0.04 0.04 0.05 0.09 0.10 0.10 0.12 0.15 0.15 0.16 0.16 0.15 0.11 0.09 0.08 0.08 0.07
0.01 0.01 0.01 0.01 0.02 0.02 0.01 0.02 0.03 0.03 0.03 0.04 0.03 0.02 0.03 0.04 0.05 0.06 0.05 0.05 0.07 0.09 0.09 0.08 0.05 0.02 0.02 0.03 0.05 0.09 0.14 0.16 0.14 0.17 0.18 0.16 0.16 0.12 0.09 0.07 0.06 0.06 0.07
0.01 0.01 0.01 0.02 0.01 0.01 0.01 0.01 0.02 0.02 0.03 0.02 0.02 0.03 0.04 0.05 0.07 0.08 0.08 0.06 0.06 0.07 0.07 0.07 0.05 0.03 0.03 0.03 0.04 0.08 0.14 0.19 0.18 0.18 0.19 0.17 0.15 0.10 0.06 0.06 0.07 0.06 0.07
0.02 0.02 0.02 0.02 0.02 0.02 0.01 0.01 0.02 0.02 0.02 0.01 0.02 0.02 0.03 0.05 0.08 0.11 0.11 0.09 0.07 0.05 0.04 0.05 0.04 0.04 0.03 0.04 0.04 0.05 0.09 0.13 0.14 0.15 0.15 0.16 0.13 0.08 0.05 0.05 0.05 0.05 0.07
0.02 0.02 0.02 0.03 0.03 0.03 0.02 0.02 0.02 0.02 0.02 0.02 0.02 0.02 0.02 0.03 0.07 0.09 0.09 0.08 0.07 0.06 0.05 0.04 0.04 0.04 0.06 0.06 0.05 0.04 0.04 0.06 0.09 0.12 0.12 0.13 0.11 0.07 0.05 0.05 0.05 0.05 0.05
0.01 0.03 0.04 0.04 0.04 0.06 0.05 0.03 0.02 0.02 0.02 0.02 0.02 0.02 0.02 0.03 0.04 0.04 0.03 0.03 0.04 0.06 0.06 0.06 0.06 0.07 0.08 0.08 0.07 0.09 0.06 0.04 0.06 0.08 0.09 0.09 0.09 0.08 0.07 0.05 0.06 0.06 0.07
0.01 0.01 0.02 0.03 0.06 0.11 0.10 0.10 0.07 0.06 0.05 0.04 0.03 0.03 0.03 0.03 0.03 0.02 0.03 0.03 0.02 0.04 0.05 0.05 0.05 0.07 0.09 0.09 0.10 0.11 0.08 0.06 0.07 0.08 0.08 0.08 0.09 0.10 0.08 0.07 0.07 0.06 0.05
0.01 0.01 0.02 0.03 0.05 0.07 0.05 0.06 0.07 0.07 0.06 0.05 0.04 0.03 0.03 0.04 0.05 0.03 0.05 0.06 0.05 0.04 0.06 0.05 0.06 0.07 0.09 0.11 0.14 0.14 0.12 0.09 0.08 0.08 0.07 0.07 0.08 0.07 0.05 0.05 0.07 0.07 0.06
0.01 0.01 0.01 0.02 0.03 0.03 0.04 0.04 0.05 0.06 0.05 0.03 0.03 0.02 0.03 0.04 0.04 0.03 0.03 0.05 0.07 0.07 0.06 0.05 0.06 0.07 0.09 0.11 0.11 0.10 0.09 0.08 0.08 0.07 0.06 0.05 0.04 0.04 0.04 0.06 0.08 0.07 0.06
0.00 0.00 0.01 0.01 0.02 0.02 0.02 0.03 0.03 0.03 0.02 0.02 0.02 0.02 0.03 0.04 0.04 0.03 0.03 0.05 0.06 0.07 0.05 0.05 0.05 0.04 0.04 0.04 0.03 0.04 0.05 0.08 0.09 0.09 0.07 0.04 0.03 0.03 0.03 0.04 0.04 0.04 0.03
MSLP
1005.18 1003.56 1001.93 1000.46 999.25 998.40 997.96 997.92 998.24 998.86 999.69 1000.64 1001.64 1002.65 1003.63 1004.59 1005.50 1006.40 1007.26 1008.09 1008.88 1009.62 1010.29 1010.91 1011.46 1011.96 1012.41 1012.85 1013.26 1013.66 1014.05 1014.42 1014.78 1015.12 1015.44 1015.74 1016.02 1016.30 1016.56 1016.80 1017.04 1017.27 1017.50
1005.71 1004.21 1002.68 1001.27 1000.10 999.23 998.73 998.60 998.82 999.32 1000.05 1000.94 1001.91 1002.92 1003.93 1004.93 1005.90 1006.83 1007.72 1008.55 1009.31 1010.02 1010.65 1011.23 1011.75 1012.24 1012.69 1013.13 1013.55 1013.97 1014.38 1014.77 1015.15 1015.50 1015.82 1016.12 1016.39 1016.63 1016.86 1017.08 1017.29 1017.50 1017.71
1006.20 1004.84 1003.45 1002.14 1001.02 1000.16 999.62 999.42 999.52 999.92 1000.54 1001.34 1002.27 1003.26 1004.29 1005.31 1006.30 1007.25 1008.13 1008.95 1009.69 1010.35 1010.95 1011.50 1012.01 1012.49 1012.96 1013.42 1013.88 1014.33 1014.77 1015.19 1015.59 1015.95 1016.27 1016.56 1016.81 1017.03 1017.23 1017.40 1017.58 1017.77 1017.97
1006.62 1005.44 1004.21 1003.03 1002.00 1001.19 1000.64 1000.37 1000.39 1000.68 1001.20 1001.92 1002.78 1003.73 1004.74 1005.76 1006.75 1007.68 1008.55 1009.33 1010.03 1010.67 1011.24 1011.78 1012.29 1012.79 1013.28 1013.78 1014.27 1014.76 1015.23 1015.68 1016.09 1016.46 1016.78 1017.06 1017.29 1017.48 1017.64 1017.79 1017.93 1018.09 1018.28
1006.99 1006.00 1004.96 1003.94 1003.04 1002.31 1001.79 1001.50 1001.46 1001.67 1002.09 1002.72 1003.50 1004.39 1005.35 1006.33 1007.29 1008.19 1009.01 1009.75 1010.42 1011.02 1011.58 1012.11 1012.63 1013.16 1013.69 1014.22 1014.75 1015.27 1015.76 1016.22 1016.63 1017.00 1017.32 1017.58 1017.79 1017.96 1018.09 1018.21 1018.34 1018.48 1018.65
1007.36 1006.57 1005.72 1004.91 1004.17 1003.55 1003.09 1002.82 1002.75 1002.89 1003.24 1003.77 1004.47 1005.28 1006.17 1007.08 1007.97 1008.81 1009.57 1010.26 1010.88 1011.46 1012.00 1012.54 1013.08 1013.63 1014.19 1014.75 1015.30 1015.83 1016.32 1016.77 1017.18 1017.53 1017.83 1018.08 1018.27 1018.42 1018.54 1018.65 1018.76 1018.89 1019.06
1007.78 1007.17 1006.54 1005.93 1005.37 1004.90 1004.54 1004.32 1004.25 1004.34 1004.62 1005.07 1005.67 1006.39 1007.18 1008.00 1008.81 1009.56 1010.26 1010.88 1011.45 1012.00 1012.52 1013.06 1013.62 1014.19 1014.77 1015.34 1015.89 1016.40 1016.88 1017.30 1017.68 1018.00 1018.28 1018.51 1018.70 1018.84 1018.96 1019.07 1019.18 1019.31 1019.48
1008.28 1007.85 1007.42 1007.02 1006.65 1006.34 1006.09 1005.93 1005.87 1005.95 1006.16 1006.53 1007.04 1007.66 1008.35 1009.06 1009.77 1010.43 1011.04 1011.59 1012.11 1012.61 1013.12 1013.65 1014.21 1014.79 1015.37 1015.93 1016.46 1016.95 1017.38 1017.76 1018.09 1018.39 1018.64 1018.86 1019.04 1019.19 1019.32 1019.44 1019.56 1019.70 1019.87
1008.86 1008.59 1008.34 1008.13 1007.94 1007.78 1007.65 1007.56 1007.53 1007.59 1007.76 1008.06 1008.48 1009.00 1009.58 1010.19 1010.79 1011.35 1011.87 1012.34 1012.79 1013.24 1013.72 1014.24 1014.78 1015.35 1015.92 1016.47 1016.97 1017.41 1017.80 1018.13 1018.42 1018.68 1018.90 1019.11 1019.30 1019.46 1019.61 1019.75 1019.89 1020.04 1020.21
1009.48 1009.35 1009.26 1009.21 1009.18 1009.15 1009.12 1009.09 1009.09 1009.14 1009.28 1009.52 1009.86 1010.29 1010.78 1011.29 1011.79 1012.26 1012.68 1013.08 1013.46 1013.86 1014.30 1014.78 1015.31 1015.86 1016.40 1016.92 1017.39 1017.79 1018.13 1018.42 1018.67 1018.89 1019.10 1019.30 1019.50 1019.68 1019.84 1020.00 1020.16 1020.32 1020.51
1010.08 1010.06 1010.10 1010.19 1010.28 1010.36 1010.40 1010.43 1010.45 1010.49 1010.60 1010.79 1011.08 1011.44 1011.85 1012.29 1012.71 1013.09 1013.44 1013.77 1014.09 1014.43 1014.82 1015.26 1015.76 1016.28 1016.80 1017.29 1017.73 1018.11 1018.41 1018.67 1018.88 1019.08 1019.28 1019.47 1019.67 1019.86 1020.05 1020.22 1020.40 1020.57 1020.75
1010.61 1010.68 1010.82 1011.00 1011.18 1011.33 1011.44 1011.50 1011.53 1011.58 1011.67 1011.83 1012.07 1012.39 1012.75 1013.13 1013.50 1013.83 1014.12 1014.39 1014.66 1014.95 1015.29 1015.69 1016.15 1016.64 1017.14 1017.61 1018.03 1018.38 1018.67 1018.91 1019.10 1019.29 1019.47 1019.66 1019.85 1020.05 1020.25 1020.43 1020.61 1020.78 1020.96
1011.01 1011.15 1011.36 1011.60 1011.84 1012.04 1012.19 1012.28 1012.33 1012.38 1012.47 1012.61 1012.84 1013.13 1013.46 1013.82 1014.16 1014.46 1014.72 1014.96 1015.19 1015.44 1015.74 1016.10 1016.52 1016.99 1017.46 1017.92 1018.32 1018.67 1018.95 1019.17 1019.36 1019.53 1019.70 1019.88 1020.07 1020.26 1020.45 1020.64 1020.81 1020.99 1021.16
1011.28 1011.46 1011.72 1012.00 1012.28 1012.51 1012.68 1012.80 1012.87 1012.94 1013.03 1013.18 1013.40 1013.68 1014.01 1014.36 1014.70 1015.00 1015.26 1015.49 1015.70 1015.93 1016.20 1016.53 1016.92 1017.35 1017.80 1018.24 1018.64 1018.99 1019.27 1019.49 1019.67 1019.83 1019.98 1020.14 1020.31 1020.48 1020.66 1020.84 1021.01 1021.18 1021.35
1011.43 1011.64 1011.92 1012.22 1012.52 1012.78 1012.98 1013.13 1013.23 1013.32 1013.43 1013.59 1013.82 1014.11 1014.44 1014.80 1015.15 1015.47 1015.75 1015.99 1016.21 1016.43 1016.68 1016.99 1017.35 1017.75 1018.18 1018.60 1019.00 1019.34 1019.62 1019.84 1020.01 1020.15 1020.28 1020.40 1020.54 1020.70 1020.86 1021.02 1021.19 1021.35 1021.52
1011.51 1011.72 1012.00 1012.31 1012.62 1012.91 1013.15 1013.34 1013.49 1013.61 1013.75 1013.92 1014.15 1014.44 1014.78 1015.15 1015.52 1015.87 1016.18 1016.45 1016.69 1016.93 1017.18 1017.47 1017.80 1018.18 1018.59 1018.99 1019.37 1019.71 1019.99 1020.20 1020.35 1020.46 1020.56 1020.65 1020.75 1020.86 1021.00 1021.15 1021.31 1021.47 1021.64
1011.57 1011.76 1012.02 1012.32 1012.65 1012.98 1013.27 1013.52 1013.72 1013.89 1014.05 1014.24 1014.46 1014.74 1015.07 1015.43 1015.82 1016.19 1016.54 1016.85 1017.12 1017.39 1017.65 1017.93 1018.25 1018.61 1018.99 1019.37 1019.74 1020.06 1020.32 1020.52 1020.65 1020.73 1020.79 1020.83 1020.88 1020.96 1021.06 1021.19 1021.34 1021.51 1021.68
1011.64 1011.80 1012.02 1012.32 1012.66 1013.03 1013.38 1013.69 1013.96 1014.18 1014.37 1014.55 1014.76 1015.00 1015.30 1015.64 1016.02 1016.41 1016.79 1017.14 1017.46 1017.76 1018.04 1018.33 1018.64 1018.98 1019.34 1019.70 1020.05 1020.36 1020.60 1020.78 1020.89 1020.94 1020.95 1020.94 1020.94 1020.97 1021.03 1021.13 1021.27 1021.44 1021.61
1011.74 1011.85 1012.03 1012.32 1012.67 1013.08 1013.50 1013.88 1014.22 1014.49 1014.70 1014.87 1015.04 1015.23 1015.47 1015.77 1016.12 1016.51 1016.91 1017.30 1017.67 1018.00 1018.32 1018.63 1018.94 1019.26 1019.60 1019.95 1020.28 1020.57 1020.81 1020.97 1021.06 1021.07 1021.04 1020.98 1020.92 1020.90 1020.91 1020.98 1021.09 1021.24 1021.41
1011.87 1011.91 1012.06 1012.32 1012.69 1013.13 1013.61 1014.07 1014.47 1014.79 1015.01 1015.17 1015.29 1015.42 1015.59 1015.83 1016.14 1016.51 1016.92 1017.33 1017.74 1018.12 1018.47 1018.79 1019.11 1019.43 1019.76 1020.09 1020.41 1020.70 1020.94 1021.09 1021.16 1021.16 1021.08 1020.97 1020.86 1020.77 1020.72 1020.74 1020.81 1020.94 1021.09
1011.98 1011.98 1012.08 1012.32 1012.69 1013.17 1013.70 1014.23 1014.69 1015.04 1015.29 1015.43 1015.50 1015.56 1015.66 1015.83 1016.09 1016.43 1016.84 1017.27 1017.70 1018.12 1018.49 1018.84 1019.17 1019.49 1019.82 1020.14 1020.46 1020.76 1021.00 1021.16 1021.23 1021.21 1021.11 1020.95 1020.78 1020.62 1020.51 1020.45 1020.47 1020.54 1020.65
1012.06 1012.03 1012.10 1012.31 1012.68 1013.17 1013.74 1014.31 1014.83 1015.23 1015.48 1015.61 1015.66 1015.67 1015.70 1015.81 1016.01 1016.32 1016.72 1017.16 1017.61 1018.05 1018.44 1018.81 1019.14 1019.46 1019.78 1020.11 1020.44 1020.74 1021.00 1021.18 1021.27 1021.24 1021.12 1020.93 1020.71 1020.48 1020.28 1020.15 1020.08 1020.08 1020.14
1012.07 1012.03 1012.07 1012.26 1012.61 1013.11 1013.70 1014.31 1014.86 1015.30 1015.58 1015.72 1015.75 1015.73 1015.72 1015.79 1015.96 1016.24 1016.62 1017.05 1017.51 1017.95 1018.36 1018.72 1019.05 1019.36 1019.68 1020.01 1020.34 1020.67 1020.95 1021.16 1021.27 1021.26 1021.14 1020.92 1020.65 1020.36 1020.08 1019.85 1019.69 1019.61 1019.59
1011.98 1011.96 1012.00 1012.16 1012.49 1012.98 1013.57 1014.20 1014.78 1015.25 1015.57 1015.73 1015.78 1015.76 1015.75 1015.79 1015.94 1016.20 1016.57 1017.00 1017.44 1017.88 1018.27 1018.61 1018.92 1019.22 1019.52 1019.84 1020.18 1020.52 1020.83 1021.07 1021.21 1021.23 1021.12 1020.90 1020.59 1020.24 1019.89 1019.57 1019.32 1019.15 1019.04
1011.79 1011.81 1011.85 1012.01 1012.31 1012.77 1013.35 1013.98 1014.58 1015.08 1015.45 1015.65 1015.74 1015.75 1015.76 1015.81 1015.96 1016.22 1016.57 1016.98 1017.41 1017.81 1018.18 1018.49 1018.77 1019.03 1019.30 1019.60 1019.94 1020.28 1020.62 1020.89 1021.07 1021.12 1021.03 1020.82 1020.50 1020.11 1019.71 1019.32 1018.98 1018.71 1018.52
1011.49 1011.57 1011.63 1011.78 1012.06 1012.49 1013.04 1013.66 1014.27 1014.80 1015.20 1015.47 1015.61 1015.67 1015.72 1015.81 1015.98 1016.24 1016.58 1016.97 1017.38 1017.75 1018.07 1018.34 1018.57 1018.79 1019.02 1019.30 1019.61 1019.95 1020.30 1020.60 1020.81 1020.90 1020.84 1020.65 1020.34 1019.95 1019.51 1019.07 1018.66 1018.32 1018.06
Thickness
5765 5768 5770 5771 5771 5772 5773 5773 5774 5774 5774 5774 5774 5774 5774 5774 5775 5775 5775 5775 5774 5773 5773 5772 5771 5769 5767 5765 5763 5762 5760 5758 5756 5755 5753 5752 5751 5750 5750 5749 5747 5746 5745
5767 5768 5769 5769 5770 5770 5771 5772 5773 5773 5773 5773 5773 5773 5773 5773 5773 5773 5773 5773 5773 5771 5770 5770 5769 5767 5766 5764 5762 5760 5759 5757 5755 5754 5752 5750 5749 5748 5748 5747 5746 5745 5744
5767 5768 5768 5768 5769 5769 5770 5771 5771 5771 5772 5772 5772 5772 5772 5772 5773 5773 5772 5772 5771 5770 5769 5768 5767 5765 5764 5763 5761 5759 5758 5756 5754 5753 5751 5749 5748 5747 5746 5745 5745 5744 5743
5766 5766 5767 5767 5767 5768 5768 5769 5770 5770 5771 5771 5771 5771 5771 5771 5772 5772 5771 5770 5769 5768 5767 5766 5765 5763 5762 5761 5760 5758 5756 5754 5753 5751 5749 5748 5747 5746 5745 5744 5744 5743 5742
5765 5765 5765 5766 5766 5766 5767 5767 5767 5768 5769 5769 5769 5769 5770 5770 5771 5771 5770 5769 5768 5767 5765 5764 5763 5761 5760 5759 5758 5756 5754 5753 5751 5749 5747 5746 5746 5745 5744 5744 5743 5743 5741
5765 5764 5764 5764 5765 5765 5765 5766 5766 5766 5767 5768 5768 5768 5768 5770 5771 5770 5769 5768 5767 5765 5764 5763 5761 5759 5758 5757 5756 5754 5753 5751 5749 5747 5746 5744 5744 5744 5743 5743 5742 5742 5741
5763 5763 5762 5763 5763 5764 5764 5764 5764 5765 5765 5766 5766 5767 5768 5769 5770 5769 5768 5767 5765 5764 5763 5761 5760 5758 5757 5755 5754 5752 5751 5749 5747 5745 5744 5743 5743 5743 5742 5742 5742 5741 5739
5762 5762 5761 5762 5762 5763 5763 5763 5763 5763 5764 5764 5764 5765 5766 5767 5768 5766 5766 5765 5764 5763 5761 5760 5759 5757 5756 5755 5753 5751 5750 5748 5746 5744 5743 5742 5742 5741 5741 5741 5741 5740 5739
5762 5760 5760 5760 5761 5762 5762 5762 5762 5762 5762 5762 5763 5763 5763 5764 5764 5764 5763 5763 5763 5761 5760 5758 5757 5756 5755 5753 5752 5751 5749 5748 5745 5744 5742 5741 5741 5741 5740 5740 5740 5739 5738
5760 5759 5759 5759 5760 5760 5761 5761 5761 5761 5761 5761 5761 5761 5762 5762 5762 5762 5761 5762 5761 5760 5759 5758 5757 5755 5754 5753 5751 5750 5749 5747 5745 5743 5742 5741 5741 5740 5739 5739 5739 5738 5738
5759 5759 5759 5759 5760 5760 5760 5760 5760 5760 5760 5760 5760 5760 5760 5760 5760 5760 5760 5760 5759 5758 5757 5756 5755 5754 5753 5752 5751 5749 5748 5746 5744 5742 5742 5741 5740 5740 5739 5739 5739 5738 5737
5757 5758 5759 5760 5760 5760 5760 5760 5759 5758 5758 5758 5758 5758 5758 5759 5759 5759 5758 5758 5758 5757 5756 5755 5753 5752 5751 5750 5749 5748 5746 5745 5744 5742 5742 5741 5741 5740 5739 5738 5738 5738 5737
5758 5759 5760 5760 5760 5760 5759 5759 5758 5757 5757 5757 5757 5757 5757 5757 5758 5757 5757 5756 5756 5755 5754 5752 5751 5750 5749 5748 5747 5747 5745 5744 5743 5742 5742 5742 5741 5740 5739 5738 5737 5736 5736
5760 5760 5761 5761 5761 5760 5760 5759 5757 5757 5757 5756 5756 5756 5756 5756 5756 5756 5755 5755 5754 5753 5752 5751 5750 5749 5748 5747 5747 5746 5745 5744 5743 5742 5741 5741 5740 5739 5738 5737 5736 5735 5734
5761 5761 5762 5762 5761 5760 5759 5758 5757 5757 5757 5756 5756 5756 5756 5755 5755 5755 5754 5753 5753 5752 5751 5749 5749 5748 5747 5747 5746 5745 5744 5743 5742 5741 5741 5740 5740 5739 5738 5737 5736 5735 5734
5763 5763 5763 5762 5762 5761 5759 5758 5757 5757 5756 5756 5755 5755 5755 5755 5754 5753 5753 5752 5751 5751 5750 5748 5748 5747 5746 5745 5745 5744 5743 5742 5741 5741 5740 5739 5739 5738 5737 5736 5735 5734 5733
5766 5765 5764 5764 5762 5761 5760 5758 5758 5757 5756 5756 5756 5755 5755 5754 5753 5752 5752 5752 5751 5750 5749 5748 5747 5746 5744 5744 5743 5743 5742 5741 5740 5740 5739 5738 5737 5736 5736 5735 5734 5733 5732
5768 5767 5766 5766 5763 5762 5760 5759 5758 5757 5757 5756 5756 5756 5755 5754 5754 5753 5752 5751 5750 5749 5749 5747 5746 5744 5743 5741 5740 5740 5740 5739 5739 5737 5737 5736 5735 5734 5733 5733 5732 5731 5730
5771 5769 5767 5767 5765 5763 5761 5760 5758 5758 5757 5756 5756 5755 5755 5754 5754 5753 5752 5751 5750 5749 5748 5747 5745 5743 5740 5739 5739 5738 5738 5737 5737 5736 5735 5734 5733 5732 5731 5731 5730 5730 5729
5773 5771 5769 5768 5766 5764 5762 5760 5759 5758 5757 5757 5756 5756 5755 5755 5754 5753 5751 5750 5749 5748 5747 5746 5744 5742 5740 5738 5738 5736 5735 5735 5734 5733 5733 5731 5730 5729 5728 5728 5727 5727 5727
5775 5772 5770 5768 5767 5765 5762 5759 5756 5755 5756 5756 5757 5756 5756 5755 5754 5752 5751 5750 5749 5748 5746 5745 5743 5740 5738 5737 5734 5731 5731 5732 5732 5731 5730 5729 5728 5727 5726 5725 5724 5724 5724
5777 5774 5772 5770 5768 5766 5764 5762 5759 5757 5756 5756 5756 5756 5755 5755 5753 5752 5751 5750 5749 5748 5746 5745 5743 5740 5738 5737 5733 5728 5724 5724 5727 5728 5727 5726 5725 5724 5723 5722 5721 5720 5720
5779 5777 5776 5772 5770 5768 5766 5763 5760 5758 5756 5755 5755 5754 5755 5754 5753 5752 5751 5750 5749 5748 5746 5744 5743 5740 5736 5735 5734 5729 5722 5718 5720 5722 5723 5723 5722 5721 5720 5719 5718 5717 5717
5783 5781 5778 5775 5772 5770 5768 5764 5760 5756 5753 5753 5753 5754 5754 5754 5753 5752 5751 5750 5749 5748 5746 5744 5743 5741 5737 5734 5733 5731 5729 5726 5719 5716 5717 5719 5718 5717 5717 5716 5715 5715 5713
5787 5783 5780 5777 5774 5772 5769 5766 5762 5758 5756 5755 5754 5753 5753 5754 5753 5752 5751 5750 5749 5747 5746 5745 5743 5741 5738 5735 5732 5730 5727 5725 5722 5717 5712 5713 5713 5714 5714 5713 5712 5711 5710
5788 5785 5782 5778 5774 5772 5770 5767 5764 5760 5757 5755 5753 5752 5752 5752 5752 5752 5751 5750 5749 5748 5746 5744 5742 5740 5738 5736 5733 5731 5728 5724 5721 5717 5712 5710 5709 5710 5710 5710 5709 5708 5707